FALCON 9 R/B, 60424

Orbit data source: Space-Track

FALCON 9 R/B, 60424 is space debris in HEO originally from a launch on Mon, 12 Aug 2024 UTC launched from the Air Force Western Test Range (AFWTR). Debris objects in space refer to the collection of defunct objects orbiting the Earth. Examples of debris include non-operational satellites, rocket bodies, and fragments generated from explosions, collisions, or faulty payload assembly.

Loading next visibility...
Identifier
60424, 2024-143C
Orbit
HEO
Country
Flag of USUS
Related business
Manufacturer
SpaceX
Mission
Spacecraft
Bus & Motor
F9ST2, Unknown motor
Mass
~4,000 kg wet, ~4,000 kg dry
Launch date (UTC)
2024-08-12 (2 years ago)
Launch vehicle
Unknown
Launch site
Air Force Western Test Range (AFWTR)
Object type
Payload
Rocket body
Debris
Shape & HBR
Cyl, 8.0 m
Radar Cross Section
39.980 m², Large (>1 m²)

Expand to show TLE details & history
Last TLE update: 11 hours ago

TLE from 11 hours ago
0 FALCON 9 R/B
1 60424U 24143C   26254.09280380  .00001972  00000-0  57393-3 0  9998
2 60424  62.4108 273.7215 4700232 309.9331  17.3686  6.06585144 45922
Epoch: 2026-09-11T02:13Z
TLE epoch observation values (Epoch: 2026-09-11T02:13:38.248Z)
Latitude
-0.00007°
Longitude
-109.79372°
Altitude
1,231.431 km
Speed
8.568 km/s
True Right ascension
18h 14m 56s
True Declination
0° 00' 00"
Sunlit
Object was in daylight at epoch
Visualization orbit readout
Latitude
Unknown
Longitude
Unknown
Altitude
Unknown
Speed
Unknown
Apparent Right ascension
Unknown
Apparent Declination
Unknown
Sunlit
N/A
Visualization observer readout
Local Sidereal Time
05:10:11
Azimuth
Unknown
Elevation
Unknown
Doppler factor
Unknown
Orbital elements
Apogee altitude
12,290.003 km
Perigee altitude
352.152 km
Semi-major axis
12,699.214 km
Eccentricity
0.47002
Inclination
62.4108°
RAAN
273.7215°
Arg. of periapsis
309.9331°
True anomaly
50.1712°
Mean anomaly
17.3686°
Eccentric anomaly
31.39928°
Mean motion
1.51662 °/min
Orbital period
237.37 mins
BSTAR
0.00057393
Loading maneuver chart data...
Computing Atmospheric mass density...
Loading historical data...
Loading historical data...
Loading historical data...
Loading historical data...
Loading historical data...
Loading historical data...
Loading historical data...
Other satellites on launch #143 in the year 2024 (2024-08-12 UTC)

Documentation

Showing up to 5 results
|